Location: Cañada de la Miga
(34.7595°N, 106.2317°W)
Time: 16:11:06
(UTC+00:00)

Transit 4A - Pass Details

Date: 08 December 2021
Orbit: 864 x 981 km, 66.8° (Epoch: 18 January)

Event Time Altitude Azimuth Distance (km) Brightness Sun altitude
Exits shadow 10:56:10 23° 158° (SSE) 1,945 9.7 -37.0°
Drops below altitude 10° 10:58:21 10° 157° (SSE) 2,722 10.6 -36.5°
Sets 11:00:55 0° 157° (SSE) 3,666 11.3 -36.0°
